Volver al catálogo

STARLINK-32202

ActivoComunicacionesVLEO
NORAD 60595·PAYLOAD·🇺🇸 United States

Lanzado Aug 20, 2024 desde Cape Canaveral Space Force Station

Loading…

Próximos Pases (próximas 24 horas)

TLE

ActualizadoSource: CelesTrak SupGP

Época: Sep 14, 2026, 14:42 UTC

1 60595C 24150N   26257.61298611  .00054930  00000+0  17667-2 0  2579
2 60595  53.1571 148.5827 0001227  89.6642 113.2716 15.31668316    13

Sigue STARLINK-32202 en tiempo real con AllMySat

Download on the App Store